Wind_Speed
52 51 51 50 50 50 49 47 46 46 45 44 44 43 42 41 41 40 39 39 39 39 39 39 38 38 38 39 40 40 41 42 42 43 45 46 46 47 48 49 50 51 52
52 52 52 51 51 51 49 48 47 46 46 45 45 44 43 42 41 41 40 40 40 40 40 39 39 39 40 40 41 41 42 42 43 43 44 46 47 48 49 50 50 52 52
52 52 52 52 51 51 50 48 48 47 47 46 45 45 44 43 43 42 42 41 41 41 40 40 40 40 41 41 41 42 42 42 43 44 44 45 47 48 49 50 51 52 52
53 53 53 52 51 50 50 50 50 49 48 47 46 46 46 44 44 43 43 42 42 41 41 40 40 40 41 41 42 42 42 43 44 44 44 45 47 48 49 50 50 51 52
55 54 54 53 52 51 50 50 51 50 49 48 48 48 47 46 45 44 43 43 42 41 41 41 41 41 41 41 41 42 42 43 44 44 44 45 47 48 49 50 50 51 52
56 55 54 53 53 52 52 51 51 50 49 49 49 49 48 46 46 45 44 44 43 42 41 41 40 41 41 41 41 42 42 43 43 44 45 46 47 48 48 50 50 51 52
54 55 55 54 54 53 53 52 51 50 49 50 50 49 48 47 45 44 44 44 43 42 42 42 41 41 41 40 41 42 42 42 43 44 45 46 47 47 48 49 50 51 52
55 55 55 55 54 53 53 52 51 50 49 49 48 48 48 47 46 44 43 43 43 42 42 42 41 40 40 40 41 42 42 42 43 44 45 46 46 47 47 48 49 50 51
55 54 54 55 55 53 52 51 51 50 49 49 48 47 46 46 46 45 44 43 42 41 41 41 41 40 40 41 42 42 43 43 43 44 45 45 46 46 47 47 48 49 50
55 55 54 55 55 55 53 52 51 50 49 48 48 47 47 46 45 44 44 43 42 41 40 40 40 40 41 41 42 42 42 42 43 43 44 44 45 46 46 46 47 48 49
54 54 54 54 54 54 53 53 52 51 50 48 47 47 46 45 44 43 42 42 42 41 41 40 40 41 41 42 42 41 41 41 42 43 43 43 44 45 45 45 46 48 49
54 53 54 54 53 53 52 52 51 51 51 49 48 47 46 45 43 43 42 42 41 40 40 40 41 41 41 41 41 40 40 41 42 41 42 42 43 44 44 45 46 47 49
53 53 53 54 54 53 52 51 50 49 49 49 47 44 43 43 43 42 41 41 39 39 39 40 41 41 40 40 39 39 40 41 41 40 41 42 43 43 43 44 45 47 48
52 53 53 53 53 52 51 50 50 48 48 48 47 46 44 43 42 42 40 40 39 39 39 40 40 40 39 38 38 38 39 40 39 39 41 41 41 41 42 42 44 46 47
52 52 52 52 52 51 50 49 49 48 46 46 47 46 45 43 43 42 41 40 40 40 40 40 40 39 38 37 37 38 38 38 38 39 40 40 40 40 40 41 43 45 45
50 51 51 50 50 50 49 48 47 47 45 44 44 46 46 45 43 42 41 41 41 41 41 40 39 38 37 37 37 37 37 37 37 38 39 39 39 39 40 41 42 43 44
48 48 49 49 49 49 48 47 45 45 44 44 43 44 45 45 43 42 42 42 43 42 41 40 39 38 37 36 35 36 36 36 36 37 37 37 38 38 39 40 42 43 43
48 48 48 49 48 47 47 46 45 44 44 44 43 43 44 44 43 43 43 43 42 42 41 39 38 35 34 34 34 34 35 36 36 36 36 37 37 38 38 39 40 41 42
47 47 47 48 48 46 46 45 45 44 44 44 44 43 43 43 42 41 41 41 40 39 39 38 35 33 33 33 33 33 34 35 35 35 35 36 37 37 37 38 39 40 40
45 46 47 48 47 46 45 45 44 44 44 43 43 43 42 41 40 39 39 39 38 37 35 34 32 31 32 33 33 33 34 34 34 34 34 35 35 35 36 37 37 38 38
43 44 45 47 46 46 45 44 44 44 43 43 43 43 42 40 40 39 37 36 35 34 32 31 31 30 31 31 32 33 33 33 32 33 33 34 34 34 35 36 36 36 37
42 43 43 44 44 45 45 44 43 42 42 42 42 42 42 41 39 37 36 35 34 31 30 30 29 29 29 29 30 31 31 31 31 31 32 32 33 34 34 35 35 35 34
40 42 42 42 43 43 42 41 41 41 41 41 40 39 39 38 37 36 35 34 32 31 30 29 28 28 28 28 28 29 28 28 29 29 30 31 32 33 33 33 33 33 32
37 39 40 41 41 41 40 40 40 40 39 38 37 37 36 35 35 34 33 31 30 30 29 28 27 27 27 27 27 27 26 27 27 29 30 31 31 31 31 31 31 30 30
36 37 38 39 39 38 38 38 38 38 37 35 35 34 33 33 33 32 31 30 29 29 28 27 27 26 26 26 25 25 26 26 27 28 29 30 30 30 30 29 29 28 28
34 35 36 37 37 36 36 35 35 35 35 34 33 33 32 32 31 30 29 28 27 26 26 26 25 25 25 25 24 24 25 25 26 27 28 29 28 28 28 28 28 27 26
Wind_Direction
220 221 223 224 226 228 230 230 231 231 233 235 237 240 243 246 249 252 256 259 263 267 271 274 277 280 284 287 289 293 295 298 301 303 305 307 308 311 312 313 314 315 315
220 222 223 225 227 228 230 231 232 232 234 236 238 241 244 247 250 253 257 260 263 267 270 273 277 280 283 286 289 292 294 297 300 303 305 306 308 311 312 313 314 315 316
222 222 223 225 228 229 229 230 232 234 236 237 240 243 246 248 251 254 257 260 264 267 270 274 277 280 283 286 289 291 294 296 300 302 304 306 308 310 312 313 314 316 317
224 224 224 225 227 228 230 231 233 235 237 239 241 243 246 248 251 255 258 261 264 268 271 274 277 281 283 286 288 291 293 296 299 302 304 306 308 310 311 313 315 316 317
224 225 225 226 227 228 230 232 234 236 238 239 242 244 246 249 253 256 259 261 264 268 271 274 278 280 283 286 288 290 293 296 299 301 303 305 308 309 311 313 315 316 318
224 225 226 227 228 230 231 232 235 237 239 241 242 245 247 251 254 256 258 261 264 267 271 274 277 280 282 285 288 290 293 295 299 301 303 306 308 309 311 313 315 316 318
224 225 226 227 229 230 232 234 236 238 240 242 244 245 248 250 253 256 258 261 264 267 270 273 275 278 281 285 288 291 292 296 299 301 304 307 308 309 311 313 315 317 318
226 227 227 227 228 230 232 234 237 239 241 243 244 246 248 250 252 255 258 260 262 265 268 271 275 278 281 284 288 290 292 296 299 301 304 306 307 309 312 314 316 317 319
227 227 228 228 229 230 232 234 237 239 241 243 245 246 249 251 253 255 258 260 262 265 269 272 276 278 281 284 287 288 291 295 299 301 304 305 307 310 312 314 316 318 319
228 228 229 230 229 230 232 234 237 239 241 244 245 246 248 250 252 255 257 259 263 266 269 272 275 278 281 284 286 289 292 295 298 301 303 304 307 310 311 313 316 318 320
227 228 229 230 230 231 232 234 236 238 240 242 244 246 248 250 252 255 257 260 262 265 268 271 275 279 280 282 286 289 292 295 298 301 303 305 307 309 311 314 316 318 320
226 227 229 230 230 231 232 234 235 237 239 241 243 246 248 250 253 256 258 260 262 264 267 271 274 278 280 282 285 289 292 295 299 301 303 305 307 309 311 314 316 319 320
227 227 229 230 230 231 232 233 235 236 239 240 242 244 247 250 253 256 258 259 261 264 267 270 274 276 278 282 286 290 293 295 299 301 304 306 308 310 312 314 317 319 321
227 228 229 230 230 231 233 234 235 238 240 241 242 243 245 249 253 256 259 259 261 264 268 270 273 275 277 282 286 291 294 296 299 301 304 306 309 310 312 315 317 319 321
226 226 227 229 229 231 233 235 236 239 240 242 243 244 246 248 252 256 256 258 261 264 267 271 273 275 279 284 288 291 294 296 299 301 304 307 309 311 313 315 317 320 322
226 226 226 227 228 230 231 233 235 237 239 241 243 244 246 249 251 252 253 256 260 263 266 270 274 277 281 284 288 291 294 296 298 300 303 306 309 311 313 315 318 320 322
225 226 226 226 228 229 230 232 233 235 237 239 241 244 246 248 249 252 254 256 259 263 266 269 273 276 280 284 287 290 293 296 298 300 303 306 309 311 313 315 318 320 323
224 225 225 226 227 227 229 232 234 236 236 239 241 243 244 246 249 251 254 256 258 261 264 267 270 274 278 282 286 289 292 296 298 301 304 306 309 311 313 315 318 321 323
223 223 224 225 226 227 229 231 233 234 235 237 240 242 245 246 248 251 253 255 258 261 263 265 268 272 276 280 284 288 292 296 298 300 303 306 309 311 313 316 318 321 324
223 223 224 224 224 226 227 230 232 233 235 237 238 240 243 245 246 248 250 254 257 259 260 264 267 272 276 280 284 288 292 295 297 299 302 306 309 312 314 316 319 321 324
223 222 223 223 223 225 227 229 231 233 234 234 236 237 239 241 243 245 248 251 254 256 260 263 267 272 276 279 284 288 291 295 297 299 302 306 309 312 314 317 319 322 324
223 222 223 224 225 226 226 228 229 230 231 233 234 236 237 239 241 243 246 248 251 254 257 261 266 272 276 281 284 287 291 294 297 299 302 306 310 312 314 317 320 322 324
222 221 222 224 224 224 225 226 227 228 229 230 232 233 235 236 238 240 243 246 248 252 255 260 266 271 275 279 283 287 290 294 297 299 303 307 310 312 314 317 320 322 323
221 221 221 222 222 223 224 225 226 227 228 229 230 231 233 234 236 238 240 244 247 249 253 257 263 268 272 278 283 286 289 293 297 301 305 308 310 312 314 317 319 321 323
220 218 219 219 219 220 222 222 223 225 226 227 229 230 232 233 234 237 240 241 244 249 253 257 263 267 272 277 281 285 289 294 299 302 304 308 310 312 315 317 320 321 323
216 215 215 216 216 216 218 219 219 220 223 225 226 228 231 232 233 236 237 239 243 248 254 259 264 268 272 276 280 285 290 295 300 303 306 308 310 313 315 317 319 321 322
Height
5664 5671 5678 5684 5690 5696 5701 5707 5712 5716 5721 5725 5730 5733 5737 5740 5742 5744 5746 5747 5747 5747 5747 5746 5745 5743 5741 5738 5735 5732 5728 5724 5719 5714 5708 5702 5696 5690 5683 5676 5668 5661 5653
5654 5662 5669 5675 5681 5687 5693 5698 5703 5708 5712 5717 5721 5725 5728 5731 5733 5736 5737 5738 5738 5738 5738 5737 5736 5734 5732 5729 5726 5723 5719 5715 5711 5706 5700 5694 5687 5681 5674 5667 5659 5651 5643
5644 5651 5659 5665 5672 5678 5684 5689 5694 5699 5703 5708 5712 5716 5719 5722 5725 5727 5728 5729 5730 5730 5729 5729 5727 5726 5724 5721 5718 5714 5710 5706 5702 5697 5692 5685 5679 5672 5665 5658 5650 5642 5634
5634 5641 5649 5656 5662 5668 5674 5679 5685 5689 5694 5699 5703 5706 5710 5713 5715 5717 5719 5720 5721 5721 5720 5720 5719 5717 5715 5712 5709 5706 5702 5698 5693 5688 5683 5677 5671 5663 5656 5649 5641 5633 5625
5624 5631 5639 5646 5652 5658 5664 5670 5675 5680 5685 5689 5693 5697 5700 5703 5706 5708 5710 5711 5711 5711 5711 5711 5710 5708 5706 5703 5701 5697 5693 5689 5684 5679 5674 5668 5662 5655 5648 5640 5632 5625 5616
5613 5621 5628 5635 5641 5648 5654 5659 5664 5670 5675 5679 5683 5687 5690 5694 5697 5698 5700 5701 5702 5702 5702 5701 5700 5699 5697 5694 5691 5688 5684 5680 5675 5670 5665 5659 5653 5646 5639 5631 5623 5616 5609
5603 5610 5617 5624 5631 5637 5643 5649 5654 5660 5664 5669 5673 5677 5680 5684 5687 5689 5690 5691 5692 5692 5692 5692 5691 5689 5687 5685 5682 5679 5675 5671 5667 5662 5656 5650 5644 5637 5630 5623 5615 5606 5598
5592 5599 5606 5613 5620 5626 5632 5639 5644 5649 5654 5659 5663 5667 5670 5674 5676 5678 5680 5681 5682 5683 5683 5682 5681 5680 5678 5676 5673 5670 5666 5662 5658 5653 5647 5641 5635 5628 5621 5614 5606 5597 5589
5581 5587 5595 5602 5609 5615 5622 5628 5633 5638 5643 5648 5652 5656 5660 5663 5666 5668 5670 5671 5672 5673 5673 5673 5672 5671 5670 5667 5664 5661 5657 5653 5648 5643 5638 5632 5626 5619 5613 5605 5598 5589 5581
5569 5576 5583 5590 5597 5604 5611 5617 5622 5628 5633 5637 5641 5646 5649 5653 5656 5658 5660 5662 5663 5664 5664 5663 5663 5662 5660 5657 5654 5651 5648 5644 5639 5634 5629 5623 5617 5611 5604 5597 5589 5581 5573
5557 5565 5571 5579 5586 5593 5599 5606 5611 5617 5622 5627 5631 5635 5639 5643 5645 5648 5650 5652 5653 5653 5654 5653 5653 5652 5650 5648 5645 5642 5639 5635 5630 5625 5620 5615 5609 5603 5596 5589 5581 5573 5565
5546 5553 5561 5567 5574 5581 5588 5594 5600 5606 5610 5615 5620 5624 5628 5632 5635 5637 5640 5642 5643 5643 5644 5644 5643 5642 5640 5638 5635 5632 5629 5625 5621 5616 5612 5606 5600 5594 5587 5580 5573 5565 5557
5534 5542 5549 5555 5563 5570 5576 5583 5589 5594 5599 5604 5609 5614 5618 5622 5625 5627 5630 5631 5632 5633 5634 5634 5634 5633 5631 5628 5626 5623 5620 5616 5612 5608 5603 5597 5592 5585 5578 5572 5564 5556 5548
5523 5530 5537 5544 5551 5558 5565 5571 5578 5583 5588 5593 5599 5603 5608 5612 5615 5617 5619 5620 5622 5623 5624 5624 5623 5623 5621 5619 5617 5614 5610 5607 5603 5599 5594 5589 5583 5577 5570 5563 5556 5548 5540
5511 5518 5525 5532 5540 5547 5554 5561 5567 5573 5578 5584 5588 5593 5597 5601 5605 5607 5609 5610 5612 5613 5613 5614 5614 5613 5612 5610 5607 5605 5601 5598 5594 5590 5585 5580 5574 5568 5562 5556 5548 5541 5533
5500 5507 5514 5521 5529 5536 5543 5550 5555 5562 5567 5572 5577 5582 5586 5590 5593 5595 5598 5600 5601 5603 5603 5604 5604 5604 5602 5600 5598 5596 5592 5589 5585 5581 5576 5571 5566 5560 5554 5548 5541 5533 5526
5489 5496 5503 5510 5517 5525 5532 5539 5545 5551 5556 5561 5566 5570 5575 5578 5582 5584 5587 5589 5591 5592 5593 5594 5595 5594 5593 5591 5589 5587 5583 5580 5576 5573 5568 5563 5558 5552 5547 5540 5534 5526 5519
5478 5485 5492 5499 5506 5513 5520 5527 5533 5539 5545 5550 5554 5559 5563 5567 5570 5573 5576 5578 5580 5582 5583 5584 5584 5584 5583 5582 5580 5578 5575 5572 5568 5564 5560 5555 5550 5545 5539 5533 5526 5519 5512
5466 5474 5481 5488 5495 5502 5509 5516 5522 5528 5534 5539 5544 5548 5552 5556 5559 5562 5565 5567 5570 5572 5573 5574 5575 5574 5574 5573 5571 5569 5566 5563 5560 5556 5552 5547 5543 5537 5532 5526 5519 5513 5506
5455 5462 5470 5477 5485 5492 5498 5505 5511 5517 5522 5528 5533 5538 5541 5545 5549 5552 5555 5558 5560 5562 5563 5564 5565 5565 5564 5563 5562 5560 5558 5555 5551 5548 5544 5540 5535 5530 5525 5519 5513 5506 5499
5445 5452 5459 5466 5473 5481 5488 5494 5500 5506 5511 5517 5522 5526 5531 5535 5539 5542 5545 5548 5550 5552 5554 5555 5555 5556 5555 5554 5553 5551 5549 5546 5543 5540 5536 5532 5528 5523 5518 5512 5506 5500 5493
5434 5441 5448 5455 5463 5470 5477 5483 5489 5495 5500 5505 5511 5515 5520 5524 5529 5532 5536 5539 5541 5543 5545 5546 5546 5547 5546 5546 5545 5543 5541 5538 5535 5532 5529 5525 5520 5516 5511 5505 5500 5494 5488
5424 5431 5438 5445 5452 5459 5465 5472 5478 5484 5489 5495 5500 5505 5509 5514 5519 5523 5526 5529 5532 5534 5536 5537 5538 5538 5538 5538 5537 5535 5533 5530 5528 5524 5521 5517 5513 5509 5504 5499 5493 5488 5483
5414 5421 5428 5435 5442 5448 5455 5462 5468 5474 5479 5485 5490 5495 5500 5505 5509 5513 5517 5520 5522 5525 5527 5528 5529 5530 5530 5529 5528 5527 5525 5523 5520 5517 5514 5510 5506 5502 5497 5492 5487 5482 5478
5405 5412 5419 5426 5433 5439 5446 5452 5458 5465 5470 5476 5481 5486 5491 5496 5500 5504 5508 5511 5514 5516 5518 5520 5521 5522 5522 5521 5520 5519 5518 5515 5513 5510 5507 5504 5500 5495 5491 5486 5482 5477 5473
5397 5404 5411 5417 5424 5431 5437 5444 5450 5456 5462 5468 5473 5479 5483 5488 5492 5496 5499 5502 5506 5508 5510 5512 5513 5514 5514 5513 5513 5512 5510 5508 5506 5503 5500 5497 5493 5489 5485 5480 5476 5472 5468